• MPC Preparation (Info)

  • MPEC 2000-S20 : 1997 UH9

    The following Minor Planet Electronic Circular may be linked-to from your own Web pages, but must not otherwise be redistributed electronically.

    A form allowing access to any MPEC is at the bottom of this page.


    Read MPEC 2000-S19 Read MPEC 2000-S21


    M.P.E.C. 2000-S20                                Issued 2000 Sept. 20, 22:32 UT
    
         The Minor Planet Electronic Circulars contain information on unusual
             minor planets and routine data on comets.  They are published
       on behalf of Commission 20 of the International Astronomical Union by the
              Minor Planet Center, Smithsonian Astrophysical Observatory,
                              Cambridge, MA 02138, U.S.A.
    
                 Prepared using the Tamkin Foundation Computer Network
    
                                  MPC@CFA.HARVARD.EDU
              URL http://cfa-www.harvard.edu/iau/mpc.html  ISSN 1523-6714
    
                                       1997 UH9
    
                               Revision to MPEC 1997-V17
    
    Observations:
         J97U09H 1C2000 09 19.74827 05 50 05.39 -14 43 42.3                      413
         J97U09H 1C2000 09 19.75009 05 50 05.19 -14 43 41.8                      413
         J97U09H 1C2000 09 19.75190 05 50 04.98 -14 43 41.9                      413
         J97U09H 1C2000 09 20.75132 05 48 15.87 -14 41 10.0                      413
         J97U09H 1C2000 09 20.75336 05 48 15.65 -14 41 09.7                      413
         J97U09H 1C2000 09 20.75540 05 48 15.41 -14 41 09.3                      413
    
    Observer details:
    413 Siding Spring.  Observer R. H. McNaught.  1.0-m f/8 reflector + CCD.
    
    First and last observations above in comparison with prediction:
    Residuals in seconds of arc, reference and Delta-T
    000919 413  0.7+  4.2-    000920 413  0.2+  4.1-    MPC 31147   +0.00036 day
    
    Orbital elements:
    1997 UH9
    Epoch 2000 Sept. 13.0 TT = JDT 2451800.5                Spahr
    M  98.82092              (2000.0)            P               Q
    n   1.30341028     Peri.  180.84736     -0.72856269     +0.62029174
    a   0.8300074      Node    42.46785     -0.62589723     -0.43050190
    e   0.4748182      Incl.   25.49110     -0.27829672     -0.65567238
    P   0.76           H   18.8           G   0.15           U   5
    Residuals in seconds of arc
    971029 566  0.3-  0.1+    971101 106  0.0   0.2-    971108 121  0.5-  0.0
    971029 566  0.1-  0.1+    971102 670 (1.6-  2.4+)   971108 121  1.7+  1.0+
    971029 566  0.6-  0.2+    971102 670  0.2+  1.1+    971108 121  1.0+  0.8+
    971030 673  0.4-  0.1+    971102 670  0.5+  1.3+    971109 696  0.2-  0.1+
    971030 673  0.4-  0.7-    971102 473 (1.4-  3.7+)   971109 696  0.2-  0.0
    971030 673 (2.2+  1.0-)   971102 473 (1.7-  3.2+)   971109 696  0.1-  0.1+
    971030 566  0.3-  0.4+    971102 473 (1.7+  3.5+)   971109 658  0.4-  0.2-
    971030 566  0.2-  0.5+    971102 473  0.1+  1.3+    971109 658  0.4-  0.3-
    971030 566  0.4-  0.6+    971102 473  0.4-  1.6+    971109 658  0.6-  0.6-
    971030 422  1.2-  0.4+    971102 104  0.7-  1.1+    971110 046  0.1-  0.1+
    971030 422  1.0-  0.1+    971102 104  0.9-  1.1+    971110 046  0.2-  0.2+
    971030 422  1.2-  0.0     971102 104  0.6-  0.9+    971111 046  0.2+  0.2+
    971030 557  0.1+  0.8-    971102 104  0.4-  0.8+    971111 658  1.5-  0.3-
    971030 557  0.4-  0.7-    971103 046  0.1-  0.9+    971111 658  1.2-  0.4-
    971030 557  0.5-  0.4-    971103 046  0.5-  0.7+    971111 658 (2.6-  0.2+)
    971030 557  0.4-  0.4-    971103 046  0.3-  0.7+    971118 897  0.7-  0.3+
    971031 784 (3.6-  2.5-)   971103 046  0.5-  0.9+    971118 897  1.3+  1.8-
    971031 784  0.3+  0.7-    971103 422  0.0   0.2+    971118 897  0.6+  0.0
    971031 784  0.5+  0.7-    971103 422  0.7+  0.1+    971118 587  0.3-  1.3-
    971031 784  0.2-  0.5-    971103 422  0.0   0.1-    971118 587  0.2+  0.5-
    971031 784  0.1-  0.5-    971104 046  1.1+  0.4+    971119 360  0.2+  0.3+
    971031 784  0.5+  0.6-    971104 046  0.7+  0.4+    971119 360  1.0+  0.1-
    971031 784  0.1-  0.2-    971104 046  0.8+  0.4+    971119 360  0.2+  0.4+
    971031 670  0.4-  0.8-    971105 557  0.2+  0.0     971119 402  0.1+  0.1+
    971031 670  0.1+  0.1-    971105 557  0.1+  0.1-    971119 402  0.3+  0.2-
    971031 670  1.9-  0.1-    971105 557  0.2+  0.1-    971119 402  0.4+  0.3+
    971031 670  0.4+  0.6-    971105 426  0.3-  0.3+    971119 046  0.8-  0.8+
    971031 673  1.1+  1.3-    971105 426  0.3+  0.2+    971119 046  0.5+  0.6+
    971031 673  0.1+  1.0-    971105 426  0.8+  0.2+    971119 046  1.0-  0.8+
    971031 673  1.6+  1.7-    971105 360  0.4+  0.3+    971120 557  0.3+  0.3-
    971031 566  0.2+  0.2+    971105 360  0.3+  0.2+    971120 557  0.4+  0.1-
    971031 566  0.2+  0.0     971105 360  0.4+  0.3+    971121 424  1.0+  0.2-
    971031 566  0.1-  0.1+    971105 381  0.1-  0.3+    971121 424  0.1+  1.4+
    971031 046  0.3+  0.5+    971105 381  0.1+  0.2+    971121 046  0.3-  0.2+
    971031 046  0.1+  0.2-    971105 381  0.1-  0.3+    971121 046  0.2-  0.5+
    971031 046  0.3+  0.3+    971106 704 (5.2-  0.5-)   971121 046  0.0   0.6+
    971031 046  0.4+  0.0     971106 704 (4.9-  0.1-)   971121 046  0.5+  0.5+
    971031 557  0.6+  0.1+    971106 704 (4.9-  0.3-)   971121 046  0.5+  0.6+
    971031 557  0.4+  0.2+    971106 704 (4.7-  0.3-)   971202 658  0.5+  0.2-
    971031 557  0.4+  0.2+    971106 704 (4.6-  0.9-)   971202 658  0.4-  0.1-
    971101 620  0.4-  0.4-    971106 704  0.7-  0.3-    971202 658  1.1-  0.1-
    971101 620  0.7+  0.4-    971106 704  1.0-  1.2-    971203 658  0.1-  0.2+
    971101 126  1.7+  0.4-    971106 704  0.1-  0.9-    971203 658  2.0-  0.6+
    971101 126  0.4+  0.1+    971106 704  0.0   0.4-    971205 658  0.2-  0.0
    971101 126  0.9+  0.1+    971106 704  0.7-  0.1+    971205 658  0.0   0.2+
    971101 620 (0.5+  2.1-)   971106 704  0.9-  0.7-    971205 658  0.1+  0.1+
    971101 684  0.3+  0.1-    971106 704  0.8-  0.8-    971212 658  0.0   0.5-
    971101 684  0.2+  0.0     971106 704  0.7-  0.6-    971212 658  0.2-  0.5-
    971101 684  0.0   0.2+    971106 704  1.0-  0.4+    971212 658  0.2-  0.1-
    971101 684  0.0   0.0     971106 704  1.1-  0.2-    971224 104  1.1+  0.1-
    971101 684  0.0   0.0     971106 424  0.5+  0.5+    971224 104  0.7+  0.1-
    971101 684  0.0   0.1-    971106 424  0.8+  1.0+    971224 104  0.6+  0.1+
    971101 670  0.1-  0.4+    971106 424  0.1-  0.2+    980102 711  0.5+  1.7-
    971101 670  0.2+  0.1+    971106 424  0.5+  0.3+    980102 711  0.6+  1.4-
    971101 670  0.5-  0.0     971106 424  0.3+  0.0     980103 711  0.2-  0.4-
    971101 670  0.1+  0.2-    971106 897  0.4+  0.6-    980103 711  0.1-  0.4-
    971101 422  0.6-  1.1-    971106 897  0.0   0.0     980110 658  0.6-  1.2+
    971101 897  0.6+  0.9-    971106 897  0.2-  0.4+    980110 658  0.8-  0.2-
    971101 897  1.9+  1.4-    971106 422  0.4+  0.0     980110 658 (1.2-  2.6-)
    971101 897  0.5-  0.2-    971106 422  0.1-  0.1-    000919 413  0.3+  0.1-
    971101 897  0.5+  0.3-    971106 422  0.0   0.2+    000919 413  0.4+  0.2+
    971101 426  1.0-  0.2-    971107 360  0.0   0.2-    000919 413  0.3+  0.2-
    971101 426  0.0   0.7-    971107 360  0.0   0.1-    000920 413  0.5-  0.0
    971101 426  0.3-  0.6-    971107 360  0.1-  0.1-    000920 413  0.2-  0.0
    971101 106  0.2-  0.1-    971108 121  0.4+  0.2-    000920 413  0.1-  0.1+
    971101 106  0.2-  0.3-    971108 121  0.7+  0.3-
    
    Ephemeris:
    1997 UH9                 a,e,i = 0.83, 0.47, 25                  q = 0.4359
    Date    TT    R. A. (2000) Decl.     Delta      r     Elong.  Phase     V
    2000 09 13    06 00.52   -14 58.8    0.421    1.038    82.5    73.9    19.6
    2000 09 23    05 43.84   -14 35.2    0.370    1.094    94.1    66.2    19.2
    2000 10 03    05 16.53   -13 53.0    0.314    1.139   108.5    56.4    18.6
    2000 10 13    04 30.27   -12 09.4    0.262    1.175   127.2    42.5    17.9
    2000 10 23    03 19.20   -08 08.3    0.230    1.201   150.6    24.0    17.1
    2000 11 02    01 56.28   -01 40.6    0.235    1.217   161.6    14.9    16.9
    2000 11 12    00 50.23   +04 39.1    0.277    1.224   143.5    28.8    17.7
    2000 11 22    00 10.26   +09 19.1    0.345    1.221   125.7    41.0    18.5
    2000 12 02    23 49.62   +12 44.5    0.422    1.209   112.1    49.1    19.2
    2000 12 12    23 40.87   +15 32.2    0.500    1.188   101.2    54.4    19.7
    2000 12 22    23 39.26   +18 02.2    0.573    1.157    92.1    58.2    20.0
    2001 01 01    23 42.07   +20 25.3    0.637    1.116    84.1    61.2    20.2
    2001 01 11    23 47.55   +22 46.0    0.688    1.065    76.9    64.1    20.4
    2001 01 21    23 54.40   +25 03.8    0.722    1.004    70.2    67.3    20.5
    
    Timothy B. Spahr             (C) Copyright 2000 MPC           M.P.E.C. 2000-S20
    

    Read MPEC 2000-S19 Read MPEC 2000-S21


    MPEC number:

    Enter an MPEC number in one of the following forms:

    • 1997-B01 (the full form)
    • J97B01 (the packed version of the full form)
    • B01 (the abbreviated form)